CDT,Max TemperatureF,Mean TemperatureF,Min TemperatureF,Max Dew PointF,MeanDew PointF,Min DewpointF,Max Humidity, Mean Humidity, Min Humidity, Max Sea Level PressureIn, Mean Sea Level PressureIn, Min Sea Level PressureIn, Max VisibilityMiles, Mean VisibilityMiles, Min VisibilityMiles, Max Wind SpeedMPH, Mean Wind SpeedMPH, Max Gust SpeedMPH,PrecipitationIn, CloudCover, Events, WindDirDegrees
2013-4-1,41,28,16,23,18,11,85,66,36,30.38,30.32,30.21,10,10,10,17,9,26,0.00,1,,342
2013-4-2,52,35,19,24,20,15,85,57,31,30.35,30.31,30.26,10,9,5,10,3,,0.00,1,,115
2013-4-3,60,42,24,24,22,17,78,52,26,30.37,30.29,30.19,10,8,5,22,9,29,0.00,0,,166
2013-4-4,64,44,24,34,27,18,84,52,23,30.19,30.13,30.06,10,8,5,13,8,21,0.00,1,Rain,350
2013-4-5,69,48,26,37,30,21,81,52,31,30.19,29.98,29.69,10,9,7,25,12,32,0.00,0,,138
2013-4-6,73,60,48,43,38,33,69,50,25,29.78,29.64,29.57,10,9,4,26,15,39,0.00,2,Rain,276
2013-4-7,73,53,33,47,38,29,85,63,30,29.87,29.76,29.62,10,7,2,18,7,33,0.00,5,Rain,35
2013-4-8,73,56,39,54,48,38,100,78,49,29.72,29.66,29.61,9,4,0,18,5,21,0.02,4,Fog-Rain-Thunderstorm,156
2013-4-9,54,46,34,52,39,30,94,88,80,29.95,29.84,29.61,10,3,0,32,24,41,2.34,8,Fog-Rain-Snow-Thunderstorm,3
2013-4-10,37,35,33,34,33,31,96,91,81,30.01,29.92,29.82,10,4,0,30,17,40,0.15,8,Fog-Rain-Snow-Thunderstorm,351
2013-4-11,39,34,30,34,30,28,93,86,75,29.80,29.69,29.62,10,4,0,22,13,30,0.03,8,Fog-Rain-Snow,301
2013-4-12,39,36,33,30,28,24,87,75,65,30.02,29.87,29.72,10,9,8,23,17,26,0.00,8,,310
2013-4-13,51,40,30,38,32,24,85,70,59,30.04,29.91,29.69,10,9,7,18,8,,0.00,4,,177
2013-4-14,68,55,42,55,42,34,89,75,59,29.72,29.54,29.29,10,7,2,30,14,40,0.60,5,Rain-Thunderstorm,136
2013-4-15,50,42,35,33,29,22,77,64,50,30.11,29.90,29.65,10,10,10,20,11,,0.00,4,,298
2013-4-16,54,45,36,34,30,28,79,61,40,30.27,30.19,30.11,10,10,6,15,10,23,0.00,5,,17
2013-4-17,46,42,37,40,37,34,93,86,63,30.20,29.94,29.78,10,4,1,28,14,36,0.40,8,Rain-Thunderstorm,18
2013-4-18,37,35,33,34,31,27,93,86,75,29.90,29.79,29.71,10,3,0,32,24,43,0.24,8,Fog-Rain-Snow,326
2013-4-19,45,36,28,28,24,19,79,63,45,30.12,29.96,29.86,10,10,10,26,20,32,0.00,1,,309
2013-4-20,46,36,26,30,24,20,85,63,42,30.29,30.20,30.14,10,10,10,15,7,,0.00,3,,100
2013-4-21,66,52,39,49,41,30,87,67,39,30.16,30.08,29.99,10,9,7,29,11,36,0.03,7,Rain-Thunderstorm,135
2013-4-22,45,39,33,43,36,28,93,87,81,30.24,30.09,29.99,10,4,1,32,17,41,0.51,8,Rain-Snow,355
2013-4-23,39,34,28,28,25,22,81,70,59,30.28,30.23,30.19,10,9,7,29,21,36,0.00,3,,341
2013-4-24,60,43,27,34,27,21,81,60,29,30.22,30.14,30.03,10,9,7,24,8,38,0.00,1,Rain,263
2013-4-25,71,49,28,37,32,24,89,56,25,30.26,30.14,29.98,10,10,7,25,9,34,0.00,0,,197
2013-4-26,75,60,46,49,41,36,77,49,27,30.19,30.05,29.99,10,10,8,25,15,24,0.00,0,,178
2013-4-27,73,56,39,50,45,37,93,75,34,30.18,30.08,29.92,9,4,0,14,9,20,0.00,3,Fog,172
2013-4-28,86,64,44,51,45,41,90,56,23,29.93,29.78,29.64,10,8,2,23,11,31,0.00,0,,173
2013-4-29,86,70,54,53,46,42,75,50,22,29.75,29.63,29.45,10,9,6,26,10,31,0.00,0,,129
2013-4-30,75,65,54,55,44,33,69,46,28,29.92,29.69,29.41,10,9,3,24,16,32,0.09,4,Rain-Thunderstorm,357